Find T16

NORAD ID: 44333 Int'l Des: 2019-034 Owner: DTVA Country: US operational
HEOCIRCULARGSOGEO

Live Position

Loading 3D Globe...

About T16

Description loading...

Upcoming Passes

Passes for default location (London). Set your location on the main map for personalized predictions.

Altitude History

Loading altitude history...

Two-Line Element Set

1 44333U 19034A 26107.13353235 -.00000109 00000-0 00000-0 0 9996
2 44333 0.0364 79.9001 0000811 136.1293 296.4581 1.00274119 25022
Epoch: Apr 17, 2026 • Age: 12 hours

Current Status

Altitude 35786.9 km
Velocity 3.07 km/s
Sub-Earth Point 0.01°N, 100.85°W
Launch Date Jun 20, 2019
Age 6.8 years
Type other

Technical Details

Classification Payload
Mass 6330.00 kg
Dry Mass 3000.00 kg
Total Mass 6330.00 kg
Length 3.90 m
Diameter 2.40 m
Span 30.80 m
Shape Box + 2 panels
Manufacturer ADST
Bus Type Eurostar 3000LXH
Phase Status In Orbit
Owner/State DTVA/US

Most Searched